This is the latest recevied weather packets stored in our database for station/object F4NFR-13. If no packets are shown the sender has not sent any weather packets the latest 1 day(s).
| Time | Temp. | Humidity | Pressure | Rain* | Wind** | Luminosity | Snow |
|---|---|---|---|---|---|---|---|
| 1778052193 | 10° C | 81% | 1012.3 hPa | 0 mm | - | 240 W/m² | - |
| 1778051890 | 10° C | 82% | 1012.3 hPa | 0 mm | - | 174 W/m² | - |
| 1778051587 | 10° C | 82% | 1012.3 hPa | 0 mm | - | 123 W/m² | - |
| 1778051285 | 10° C | 82% | 1012.3 hPa | 0 mm | - | 96 W/m² | - |
| 1778050378 | 10° C | 80% | 1012.3 hPa | 0 mm | - | 69 W/m² | - |
| 1778050076 | 10° C | 78% | 1012.3 hPa | 0 mm | - | 106 W/m² | - |
| 1778049773 | 10° C | 77% | 1012 hPa | 0 mm | - | 154 W/m² | - |
| 1778049168 | 10° C | 80% | 1012 hPa | 0 mm | - | 153 W/m² | - |
| 1778048564 | 10° C | 80% | 1012 hPa | 0 mm | - | 131 W/m² | - |
| 1778048261 | 10° C | 81% | 1012 hPa | 0 mm | - | 129 W/m² | - |
| 1778047959 | 10° C | 81% | 1012 hPa | 0 mm | - | 126 W/m² | - |
| 1778047656 | 10° C | 81% | 1012 hPa | 0 mm | - | 119 W/m² | - |
| 1778047051 | 10° C | 80% | 1012 hPa | 0 mm | - | 103 W/m² | - |
| 1778046749 | 10° C | 80% | 1012 hPa | 0 mm | - | 99 W/m² | - |
| 1778045539 | 8.89° C | 82% | 1012 hPa | 0 mm | - | 61 W/m² | - |
| 1778045237 | 8.89° C | 82% | 1012 hPa | 0 mm | - | 55 W/m² | - |
| 1778044632 | 8.89° C | 82% | 1012 hPa | 0 mm | - | 43 W/m² | - |
| 1778043724 | 8.89° C | 83% | 1012 hPa | 0 mm | - | 28 W/m² | - |
| 1778043119 | 8.89° C | 85% | 1012.3 hPa | 0 mm | - | 18 W/m² | - |
| 1778042514 | 8.89° C | 84% | 1012.3 hPa | 0 mm | - | 12 W/m² | - |
| 1778042212 | 8.89° C | 83% | 1012.3 hPa | 0 mm | - | 9 W/m² | - |
| 1778041607 | 8.89° C | 82% | 1012.3 hPa | 0 mm | - | 4 W/m² | - |
| 1778041304 | 8.89° C | 82% | 1012.3 hPa | 0 mm | - | 2 W/m² | - |
| 1778041002 | 8.89° C | 81% | 1012.3 hPa | 0 mm | - | 269 W/m² | - |
| 1778040095 | 8.89° C | 80% | 1012.3 hPa | 0 mm | - | 0 W/m² | - |
* Rain latest hour (hover to see other rain measurements)
** Current wind speed in m/s (hover to see current wind gust speed)